This demonstration page uses our WeatherBlox Daily Observations layout. Learn more.

Left ArrowRight Arrow

39.01783, -85.05884

Hourly Observations for November 25, 2018

Temp ( °F °C ) Dew Point ( °F °C ) Humidity (%) Winds ( mph kmh ) Pressure ( in mb ) Visibility ( mi km ) Precip ( " mm )
12:52 am 00:52 Mostly Clear 44 6.7 43 6.1 96 96 SSW 7 11 29.82 1010 10 16 0.00 0.00
1:52 am 01:52 Mostly Clear 44 6.7 43 6.1 96 96 SW 6 9 29.83 1010 10 16 0.00 0.00
2:52 am 02:52 Clear with Mist and Fog 44 6.7 43 6.1 96 96 SW 6 9 29.85 1011 6 10 0.00 0.00
3:48 am 03:48 Clear with Mist and Fog 41 5 39 4 93 93 Calm 29.88 1012 2 2 0.00 0.00
3:52 am 03:52 Clear with Mist and Fog 39 3.9 39 3.9 100 100 Calm 29.85 1011 6 10 0.00 0.00
4:52 am 04:52 Clear with Mist and Fog 38 3.3 38 3.3 100 100 S 5 7 29.87 1011 6 10 0.00 0.00
5:52 am 05:52 Clear with Mist and Fog 38 3.3 38 3.3 100 100 S 8 13 29.87 1012 3 5 0.00 0.00
6:24 am 06:24 Mostly Clear with Mist and Fog 39 3.9 39 3.9 100 100 SSW 6 9 29.91 1013 3 4 0.00 0.00
6:52 am 06:52 Clear with Mist and Fog 37 2.8 37 2.8 100 100 S 6 9 29.88 1012 3 4 0.00 0.00
7:10 am 07:10 Clear with Mist and Fog 37 2.8 37 2.8 100 100 S 6 9 29.91 1013 1 2 0.00 0.00
7:18 am 07:18 Clear with Mist and Fog 36 2.2 36 2.2 100 100 S 6 9 29.91 1013 1 2 0.00 0.00
7:52 am 07:52 Partly Cloudy with Mist and Fog 38 3.3 38 3.3 100 100 SSE 5 7 29.87 1012 2 2 0.00 0.00
8:18 am 08:18 Partly Cloudy with Mist and Fog 38 3.3 38 3.3 100 100 S 3 6 29.91 1013 2 2 0.00 0.00
8:52 am 08:52 Partly Cloudy with Patchy Fog 40 4.4 40 4.4 100 100 S 5 7 29.88 1012 2 3 0.00 0.00
9:05 am 09:05 Partly Cloudy with Mist and Fog 43 6.1 43 6.1 100 100 Calm 29.91 1013 3 5 0.00 0.00
9:52 am 09:52 Partly Cloudy with Mist and Fog 47 8.3 47 8.3 100 100 S 5 7 29.89 1012 6 10 0.00 0.00
10:52 am 10:52 Partly Cloudy 52 11.1 48 8.9 86 86 S 7 11 29.88 1012 10 16 0.00 0.00
11:52 am 11:52 Mostly Cloudy 53 11.7 47 8.3 80 80 SE 10 17 29.86 1011 10 16 0.00 0.00
12:52 pm 12:52 Cloudy 53 11.7 49 9.4 86 86 ESE 9 15 29.85 1011 10 16 0.00 0.00
1:52 pm 13:52 Cloudy 54 12.2 49 9.4 83 83 ESE 10 17 29.80 1009 10 16 0.00 0.00
2:52 pm 14:52 Cloudy 54 12.2 49 9.4 83 83 ESE 12 19 29.78 1008 10 16 0.00 0.00
3:52 pm 15:52 Mostly Cloudy 56 13.3 48 8.9 75 75 SE 10 17 29.76 1008 10 16 0.00 0.00
4:52 pm 16:52 Cloudy 53 11.7 45 7.2 74 74 SE 15 24 29.73 1007 10 16 0.00 0.00
5:52 pm 17:52 Cloudy 53 11.7 44 6.7 72 72 SE 15 24 29.69 1005 10 16 0.00 0.00
6:52 pm 18:52 Cloudy 53 11.7 43 6.1 69 69 SE 17 28 29.67 1005 10 16 0.00 0.00
7:52 pm 19:52 Cloudy with Light Rain 52 11.1 44 6.7 75 75 SE 16 26 29.64 1004 10 16 0.00 0.03
8:52 pm 20:52 Cloudy 53 11.7 43 6.1 69 69 SE 20 31 29.57 1001 10 16 0.00 0.03
9:52 pm 21:52 Cloudy 51 10.6 45 7.2 80 80 SE 20 31 29.53 1000 10 16 0.01 0.25
10:52 pm 22:52 Cloudy 51 10.6 44 6.7 77 77 SSE 17 28 29.46 998 10 16 0.01 0.25
11:52 pm 23:52 Cloudy with Rain 50 10 46 7.8 86 86 S 17 28 29.44 997 6 10 0.08 2.03

Powered by AerisWeather